GJZ 05 (62294 NORAD) Tracking and Keplerian Element Data

This shows tracking and keplerian element data for the satellite.

Feedback or suggestion? Click here.




ElementValue
Catalog62294
NameGJZ 05
Epoch Orbit743
Epoch Day35.2990336
Epoch Year2025
RAAN337.9284
Inclination59.9138
Eccentricity0.001371
Argument of Perigee342.95
Mean Anonmoly17.1046
Mean Motion13.75105278
Decay Rate9.3E-07
L11 62294U 24238E 25035.29903360 .00000093 00000+0 22139-3 0 9990
L22 62294 59.9138 337.9284 0013710 342.9500 17.1046 13.75105278 7433



Live tracking and technical data element details for GJZ 05 (NORAD 62294). GJZ 05 can be tracked NOW for your location showing map with azimuth and elevation plus other details from your city location.







IsCatalogInMostPopularTable: catalog: 62294, numindb: 30
Update: records affected: 1



GetName: 62294 GJZ 05

Hit Count: updated at: Sun, 18 May 2025 22:41:28 GMT